User: anonymous   Login
Location: Noordwijk
(52.2400°N, 4.4500°E)
Time: 09:44:41
(UTC+00:00)
Language:

QB50P2 - Orbit

View from above orbital plane
View from above orbital plane
View from above satellite
View from above satellite

Ground track
Ground track

The orbit data is extracted from the following two-line orbital elements,

1 40032U 14033Y   22333.45524479  .00002139  00000-0  22337-3 0  9998
2 40032  97.9503 267.0523 0009896 227.1535 132.8851 14.90756742458196
Epoch (UTC): 29 November 2022 10:55:33
Eccentricity: 0.0009896
inclination: 97.9503°
perigee height: 588 km
apogee height: 602 km
right ascension of ascending node: 267.0523°
argument of perigee: 227.1535°
revolutions per day: 14.90756742
mean anomaly at epoch: 132.8851°
orbit number at epoch: 45819

The dashed part of the orbit path shows where the satellite is in the earth's shadow,  

DLR